Simultaneous Nadir Overpasses (SNOs) Predictions

Prediction of SNOs between NOAA-20 and METOP-B Satellite Orbit:

Table of predicted SNOs for the next 14.0 days since TLE Epoch: 4/3/2021
Index Date (NOAA-20) Time (NOAA-20) Lat,Lon (NOAA-20) SZA (NOAA-20 ) Date (METOP-B) Time (METOP-B) Lat,Lon (METOP-B) SZA (METOP-B ) Distance(km) Time Diff (sec)
1 04/11/2021 13:19:33 -73.55, 150.27 114.79 04/11/2021 13:20:39 -73.50, 153.24 114.99 93.88 66
2 04/11/2021 14:10:15 73.36, -41.98 64.98 04/11/2021 14:11:23 73.31, -39.87 64.82 67.52 68
3 04/11/2021 15:00:57 -73.26, 125.56 115.15 04/11/2021 15:02:07 -73.18, 127.18 115.31 52.65 70
4 04/11/2021 15:51:38 73.06, -66.70 64.63 04/11/2021 15:52:50 72.98, -65.92 64.50 26.74 72
5 04/11/2021 16:42:20 -72.96, 100.83 115.50 04/11/2021 16:43:33 -72.90, 101.25 115.59 14.87 73
6 04/11/2021 17:33:03 72.81, -91.54 64.33 04/11/2021 17:34:15 72.80, -91.62 64.32 2.76 72
7 04/11/2021 18:23:47 -72.81, 75.77 115.68 04/11/2021 18:24:56 -72.83, 75.76 115.68 2.30 69
8 04/11/2021 19:14:33 72.81,-116.92 64.31 04/11/2021 19:15:36 72.83,-116.91 64.32 2.46 63
9 04/11/2021 20:05:17 -72.81, 50.39 115.71 04/11/2021 20:06:18 -72.81, 50.37 115.72 0.98 61
10 04/11/2021 20:56:03 72.81,-142.30 64.29 04/11/2021 20:56:58 72.81,-142.30 64.27 0.63 55
11 04/11/2021 21:46:47 -72.82, 25.01 115.73 04/11/2021 21:47:39 -72.83, 25.08 115.73 3.24 52
12 04/11/2021 22:37:33 72.82,-167.69 64.26 04/11/2021 22:38:20 72.79,-167.68 64.22 3.50 47
13 04/11/2021 23:28:17 -72.82, -0.37 115.75 04/11/2021 23:29:01 -72.81, -0.30 115.77 2.50 44
14 04/12/2021 00:19:03 72.82, 166.93 64.24 04/12/2021 00:19:41 72.81, 167.03 64.22 3.44 38
15 04/12/2021 01:09:46 -72.77, -25.65 115.83 04/12/2021 01:10:23 -72.79, -25.69 115.82 2.22 37
16 04/12/2021 02:00:32 72.77, 141.66 64.16 04/12/2021 02:01:03 72.79, 141.65 64.17 1.91 31
17 04/12/2021 02:51:16 -72.78, -51.03 115.85 04/12/2021 02:51:45 -72.76, -51.08 115.87 1.94 29
18 04/12/2021 03:42:02 72.78, 116.27 64.14 04/12/2021 03:42:25 72.77, 116.26 64.13 1.21 23
19 04/12/2021 04:32:46 -72.78, -76.41 115.87 04/12/2021 04:33:06 -72.79, -76.36 115.87 2.28 20
20 04/12/2021 05:23:32 72.78, 90.89 64.12 04/12/2021 05:23:46 72.79, 90.98 64.13 3.15 14
21 04/12/2021 06:14:16 -72.78,-101.79 115.90 04/12/2021 06:14:28 -72.77,-101.75 115.91 2.04 12
22 04/12/2021 07:05:02 72.78, 65.51 64.10 04/12/2021 07:05:08 72.77, 65.59 64.08 2.82 6
23 04/12/2021 07:55:45 -72.73,-127.07 115.97 04/12/2021 07:55:50 -72.75,-127.14 115.96 2.53 5
24 04/12/2021 08:46:31 72.74, 40.24 64.02 04/12/2021 08:46:30 72.75, 40.20 64.03 1.80 1
25 04/12/2021 09:37:15 -72.74,-152.45 116.00 04/12/2021 09:37:12 -72.72,-152.52 116.01 2.90 3
26 04/12/2021 10:28:01 72.74, 14.85 64.00 04/12/2021 10:27:52 72.72, 14.81 63.99 2.13 9
27 04/12/2021 11:18:45 -72.74,-177.83 116.02 04/12/2021 11:18:33 -72.75,-177.81 116.01 1.36 12
28 04/12/2021 12:09:31 72.74, -10.53 63.97 04/12/2021 12:09:13 72.75, -10.47 63.99 2.15 18
29 04/12/2021 13:00:15 -72.74, 156.78 116.04 04/12/2021 12:59:55 -72.73, 156.80 116.05 2.00 20
30 04/12/2021 13:51:01 72.75, -35.91 63.95 04/12/2021 13:50:35 72.73, -35.86 63.94 2.49 26
31 04/12/2021 14:41:44 -72.70, 131.51 116.12 04/12/2021 14:41:17 -72.70, 131.42 116.10 3.10 27
32 04/12/2021 15:32:30 72.70, -61.19 63.88 04/12/2021 15:31:57 72.71, -61.25 63.89 2.18 33
33 04/12/2021 16:23:14 -72.70, 106.13 116.14 04/12/2021 16:22:38 -72.73, 106.13 116.10 3.50 36
34 04/12/2021 17:14:00 72.70, -86.57 63.85 04/12/2021 17:13:19 72.68, -86.63 63.85 3.09 41
35 04/12/2021 18:04:44 -72.70, 80.75 116.16 04/12/2021 18:04:00 -72.71, 80.75 116.15 0.56 44
36 04/12/2021 18:55:30 72.70,-111.95 63.83 04/12/2021 18:54:40 72.71,-111.92 63.84 1.17 50
37 04/12/2021 19:46:14 -72.71, 55.36 116.18 04/12/2021 19:45:22 -72.68, 55.36 116.20 2.39 52
38 04/12/2021 20:37:00 72.71,-137.33 63.81 04/12/2021 20:36:02 72.69,-137.31 63.80 2.55 58
39 04/12/2021 21:27:44 -72.71, 29.98 116.21 04/12/2021 21:26:43 -72.71, 30.08 116.20 3.11 61
40 04/12/2021 22:18:29 72.66,-162.61 63.73 04/12/2021 22:17:24 72.66,-162.69 63.75 2.84 65
41 04/12/2021 23:09:13 -72.66, 4.70 116.28 04/12/2021 23:08:05 -72.69, 4.69 116.24 3.05 68
42 04/12/2021 23:59:59 72.66, 172.01 63.71 04/12/2021 23:58:45 72.69, 172.02 63.75 3.00 74
43 04/13/2021 00:50:42 -72.61, -20.57 116.36 04/13/2021 00:49:28 -72.62, -20.80 116.34 7.61 74
44 04/13/2021 01:41:24 72.41, 147.14 63.41 04/13/2021 01:40:12 72.41, 146.12 63.47 34.30 72
45 04/13/2021 02:32:06 -72.31, -45.34 116.71 04/13/2021 02:30:55 -72.34, -46.70 116.61 45.72 71
46 04/13/2021 03:22:48 72.11, 122.36 63.06 04/13/2021 03:21:40 72.08, 120.14 63.15 76.02 68
47 04/13/2021 04:13:30 -72.01, -70.13 117.06 04/13/2021 04:12:23 -72.01, -72.67 116.93 87.14 67



Historial Predications of SNOs between NOAA-20 and METOP-B
